Starlink 2720

operational
NORAD ID: 48653 Int'l Des: 2021-044 Owner: SPXS Country: US Constellation: starlink
LEOCIRCULARSTARLINK_TYPE

Über Starlink 2720

Beschreibung wird geladen...

Live-Position

3D-Globus wird geladen...

Nächste Überflüge

Höhenverlauf

Altitude vs Time

uPlot chart will show altitude changes over time

Zweizeiliger Elementsatz

1 48653U 21044R 25305.36469364 .00001066 00000-0 90455-4 0 9993
2 48653 53.0552 337.6915 0002025 92.9232 267.1989 15.06392015244361
Epoch: 1. Nov. 2025 • Age: 25 hours

Aktueller Status

Höhe 561.5 km
Geschwindigkeit 7.58 km/s
Subsatellitenpunkt -40.25°S, 5.33°E
Startdatum 26. Mai 2021
Alter 4.4 years
Typ internet

Technische Details

Klassifizierung Payload
Masse 260.00 kg
Trockenmasse 248.00 kg
Gesamtmasse 260.00 kg
Länge 0.20 m
Durchmesser 2.80 m
Spannweite 9.00 m
Form Box + pan
Hersteller SPXS
Bus-Typ Starlink
Phasenstatus In Orbit
Besitzer/Staat SPXS/US

Große Konstellationen

Loading constellations...